(352283) = 2007 TN377

Discovered at Kitt Peak on 2007-10-11 by Spacewatch.

Orbit

Orbit type: Main Belt

Note: WebGL enabled browser required.

epoch2023-02-25.0
epoch JD2460000.5
perihelion date2019-08-19.66543
perihelion JD2458715.16543
argument of perihelion (°)18.92264
ascending node (°)231.15501
inclination (°)7.78480
eccentricity0.0385598
perihelion distance (AU)2.6639615
Tisserand w.r.t. Jupiter3.3
ΔV w.r.t. Earth (km/sec)10.5
semimajor axis (AU)2.7708032
mean anomaly (°)274.67019
mean daily motion (°/day)0.21369550
aphelion distance (AU)2.878
period (years)4.61
P-vector [x]-0.34307400
P-vector [y]-0.87832855
P-vector [z]-0.33292521
Q-vector [x]0.93336523
Q-vector [y]-0.35857982
Q-vector [z]-0.01580672
absolute magnitude16.41
phase slope0.15
uncertainty0
referenceMPEC 2023-E95
observations used337
oppositions13
arc length (days)6997
first opposition used2004
last opposition used2023
residual rms (arc-secs)0.75
perturbers coarse indicatorM-v
perturbers precise indicator003Ek
first observation date used2004-01-16.0
last observation date used2023-03-14.0
computer nameMPCLINUX
JD of orbit computation2456937.325146
perihelion JD uncertainty (days)6.6086E-04
argument of perihelion uncertainty (°)1.4924E-04
ascending node uncertainty (°)3.6030E-05
inclination uncertainty (°)7.6340E-06
eccentricity uncertainty 6.1054E-08
perihelion distance uncertainty (AU)1.8730E-07
Minimum Orbit Intersection Distances (in AU)
for orbit epoch: 2460000.5, reference: E2023-E95
Mercury2.20044
Venus1.93898
Earth1.65148
Mars1.09367
Jupiter2.11864
Saturn6.19398
Uranus15.7108
Neptune27.0072

Observations

335 total observations over interval: 2004 01 16.22336 – 2023 03 14.229661
These data are available for download (format description).

Date (UT) J2000 RA J2000 Dec Magn Location Ref
2004 01 16.22336 07 09 16.28 +12 18 27.6 20.3   644 – Palomar Mountain/NEAT MPS 391182
2004 01 16.28558 07 09 12.79 +12 18 31.2 20.3   644 – Palomar Mountain/NEAT MPS 391182
2004 01 16.35287 07 09 09.01 +12 18 34.7 20.1   644 – Palomar Mountain/NEAT MPS 391182
2007 10 11.46837 03 50 30.00 +21 04 13.5 20.8 V 691 – Steward Observatory, Kitt Peak-Spacewatch MPS 223847
2007 10 11.48607 03 50 29.58 +21 04 10.3 20.7 V 691 – Steward Observatory, Kitt Peak-Spacewatch MPS 223847
2007 10 11.50377 03 50 29.17 +21 04 06.8 20.7 V 691 – Steward Observatory, Kitt Peak-Spacewatch MPS 223847
2007 10 17.42064 03 47 54.52 +20 43 32.9 20.6 V G96 – Mt. Lemmon Survey MPS 223847
2007 10 17.42716 03 47 54.34 +20 43 31.4 20.4 V G96 – Mt. Lemmon Survey MPS 223847
2007 10 17.43373 03 47 54.13 +20 43 29.8 20.6 V G96 – Mt. Lemmon Survey MPS 223847
2007 10 17.44032 03 47 53.91 +20 43 28.6 20.3 V G96 – Mt. Lemmon Survey MPS 223847
2007 10 30.29892 03 39 38.10 +19 46 52.9 20.6 V 691 – Steward Observatory, Kitt Peak-Spacewatch MPS 225084
2007 10 30.31655 03 39 37.27 +19 46 47.6 20.5 V 691 – Steward Observatory, Kitt Peak-Spacewatch MPS 225084
2007 10 30.33419 03 39 36.42 +19 46 42.4 20.4 V 691 – Steward Observatory, Kitt Peak-Spacewatch MPS 225084
2007 10 30.42825 03 39 32.00 +19 46 14.2 20.4 V G96 – Mt. Lemmon Survey MPS 229111
2007 10 30.44115 03 39 31.39 +19 46 10.1 20.2 V G96 – Mt. Lemmon Survey MPS 229111
2007 10 30.45418 03 39 30.74 +19 46 06.1 20.3 V G96 – Mt. Lemmon Survey MPS 229111
2007 10 30.46700 03 39 30.16 +19 46 01.9 20.2 V G96 – Mt. Lemmon Survey MPS 229111
2007 11 03.24595 03 36 30.97 +19 26 38.4 20.3 V 691 – Steward Observatory, Kitt Peak-Spacewatch MPS 225084
2007 11 03.26359 03 36 30.10 +19 26 33.2 20.2 V 691 – Steward Observatory, Kitt Peak-Spacewatch MPS 225084
2007 11 03.28133 03 36 29.19 +19 26 27.6 20.3 V 691 – Steward Observatory, Kitt Peak-Spacewatch MPS 225084
2007 11 11.30170 03 29 37.21 +18 42 18.1 20.2 V G96 – Mt. Lemmon Survey MPS 227022
2007 11 11.30226 03 29 37.17 +18 42 17.8 20.1 V G96 – Mt. Lemmon Survey MPS 227022
2007 11 11.30966 03 29 36.70 +18 42 16.4 19.5 V G96 – Mt. Lemmon Survey MPS 227022
2007 11 11.31656 03 29 36.42 +18 42 12.8 20.0 V G96 – Mt. Lemmon Survey MPS 227022
2007 11 11.31711 03 29 36.38 +18 42 12.9 20.0 V G96 – Mt. Lemmon Survey MPS 227022
2007 11 11.32396 03 29 35.98 +18 42 10.6 20.1 V G96 – Mt. Lemmon Survey MPS 227022
2007 11 11.32451 03 29 35.95 +18 42 10.3 19.8 V G96 – Mt. Lemmon Survey MPS 227022
2007 11 14.15290 03 27 05.43 +18 25 57.2 20.0 V 691 – Steward Observatory, Kitt Peak-Spacewatch MPS 227022
2007 11 14.17050 03 27 04.47 +18 25 51.2 20.0 V 691 – Steward Observatory, Kitt Peak-Spacewatch MPS 227022
2007 11 14.18813 03 27 03.53 +18 25 45.1 20.2 V 691 – Steward Observatory, Kitt Peak-Spacewatch MPS 227022
2007 11 18.13802 03 23 32.59 +18 02 51.1   691 – Steward Observatory, Kitt Peak-Spacewatch MPS 229111
2007 11 18.15308 03 23 31.74 +18 02 46.0   691 – Steward Observatory, Kitt Peak-Spacewatch MPS 229111
2007 11 18.16813 03 23 30.92 +18 02 40.9   691 – Steward Observatory, Kitt Peak-Spacewatch MPS 229111
2007 12 16.07767 03 03 16.12 +15 38 50.0 20.6 V 691 – Steward Observatory, Kitt Peak-Spacewatch MPS 231836
2007 12 16.09103 03 03 15.72 +15 38 46.6 20.6 V 691 – Steward Observatory, Kitt Peak-Spacewatch MPS 231836
2007 12 16.11129 03 03 15.12 +15 38 42.5 20.4 V 691 – Steward Observatory, Kitt Peak-Spacewatch MPS 231836
2010 06 17.28135 16 27 04.93 -16 46 30.2 19.9 V G96 – Mt. Lemmon Survey MPS 391182
2010 06 17.28838 16 27 04.60 -16 46 28.6 19.9 V G96 – Mt. Lemmon Survey MPS 391182
2010 06 17.29544 16 27 04.24 -16 46 26.9 19.7 V G96 – Mt. Lemmon Survey MPS 391182
2010 06 17.30253 16 27 03.92 -16 46 25.2 19.8 V G96 – Mt. Lemmon Survey MPS 391182
2011 08 30.50104 23 48 14.937 +09 44 34.50 21.0 g F51 – Pan-STARRS 1, Haleakala MPS 391182
2011 08 30.56610 23 48 12.310 +09 44 19.41 20.5 r F51 – Pan-STARRS 1, Haleakala MPS 391182
2011 08 30.57708 23 48 11.847 +09 44 16.78 20.5 r F51 – Pan-STARRS 1, Haleakala MPS 391182
2011 09 02.42152 23 46 18.052 +09 32 36.71 20.8 w F51 – Pan-STARRS 1, Haleakala MPS 391182
2011 09 02.43577 23 46 17.441 +09 32 33.06 20.6 w F51 – Pan-STARRS 1, Haleakala MPS 391182
2011 09 02.45006 23 46 16.824 +09 32 29.15 20.6 w F51 – Pan-STARRS 1, Haleakala MPS 391182
2011 09 02.46445 23 46 16.205 +09 32 25.38 20.6 w F51 – Pan-STARRS 1, Haleakala MPS 391182
2011 09 25.16383 23 29 11.45 +07 16 12.5 20.0 R H15 – ISON-NM Observatory, Mayhill MPS 392711
2011 09 25.17783 23 29 10.81 +07 16 06.7 20.0 R H15 – ISON-NM Observatory, Mayhill MPS 392711
2011 09 25.19197 23 29 10.20 +07 16 01.2 20.0 R H15 – ISON-NM Observatory, Mayhill MPS 392711
2011 09 25.20583 23 29 09.52 +07 15 54.2 20.0 R H15 – ISON-NM Observatory, Mayhill MPS 392711
2011 10 01.22071 23 24 51.44 +06 32 13.8 19.7 V G96 – Mt. Lemmon Survey MPS 394251
2011 10 01.22774 23 24 51.15 +06 32 11.3 20.1 V G96 – Mt. Lemmon Survey MPS 394251
2011 10 01.23477 23 24 50.83 +06 32 08.1 20.4 V G96 – Mt. Lemmon Survey MPS 394251
2011 10 01.24179 23 24 50.54 +06 32 05.2 20.2 V G96 – Mt. Lemmon Survey MPS 394251
2012 12 17.37346 05 56 23.43 +16 20 37.7 19.5 R 926 – Tenagra II Observatory, Nogales MPS 447768
2012 12 17.39000 05 56 22.45 +16 20 35.2 19.1 R 926 – Tenagra II Observatory, Nogales MPS 447768
2012 12 17.40382 05 56 21.62 +16 20 33.7 20.2 R 926 – Tenagra II Observatory, Nogales MPS 447768
2013 01 18.40384 05 30 08.179 +15 38 42.88 20.7 r F51 – Pan-STARRS 1, Haleakala MPS 452320
2013 01 18.41597 05 30 07.766 +15 38 42.72 20.7 r F51 – Pan-STARRS 1, Haleakala MPS 452320
2014 03 25.18532 12 03 10.60 -10 05 46.4 20.0 G G45 – Space Surveillance Telescope, Atom Site MPS 1609963
2014 03 25.22104 12 03 08.87 -10 05 30.0 20.3 G G45 – Space Surveillance Telescope, Atom Site MPS 1609963
2014 03 25.23786 12 03 08.08 -10 05 22.8 20.2 G G45 – Space Surveillance Telescope, Atom Site MPS 1609963
2014 03 25.25524 12 03 07.22 -10 05 15.9 19.4 G G45 – Space Surveillance Telescope, Atom Site MPS 1609963
2014 03 28.28483 12 00 45.03 -09 43 33.5 20.2 V G96 – Mt. Lemmon Survey MPS 508475
2014 03 28.29002 12 00 44.79 -09 43 31.6 20.3 V G96 – Mt. Lemmon Survey MPS 508475
2014 03 28.29519 12 00 44.53 -09 43 29.4 20.1 V G96 – Mt. Lemmon Survey MPS 508475
2014 03 28.30036 12 00 44.28 -09 43 27.1 20.1 V G96 – Mt. Lemmon Survey MPS 508475
2014 03 30.20583 11 59 16.29 -09 29 26.2 20.9 V 703 – Catalina Sky Survey MPS 509716
2014 03 30.21090 11 59 16.03 -09 29 23.7 19.8 V 703 – Catalina Sky Survey MPS 509716
2014 03 30.21769 11 59 15.78 -09 29 22.1 19.8 r G45 – Space Surveillance Telescope, Atom Site MPS 536378
2014 03 30.22676 11 59 15.26 -09 29 16.4 20.6 V 703 – Catalina Sky Survey MPS 509716
2014 03 30.22911 11 59 15.15 -09 29 17.1 20.3 r G45 – Space Surveillance Telescope, Atom Site MPS 536378
2014 03 30.23186 11 59 14.96 -09 29 15.7 20.4 V 703 – Catalina Sky Survey MPS 509716
2014 03 30.25327 11 59 14.04 -09 29 05.7 19.9 r G45 – Space Surveillance Telescope, Atom Site MPS 536378
2014 03 30.26465 11 59 13.51 -09 29 00.8 20.5 r G45 – Space Surveillance Telescope, Atom Site MPS 536378
2014 05 24.28334 11 44 06.517 -04 16 53.52 21.2 w F51 – Pan-STARRS 1, Haleakala MPS 517819
2014 05 24.29662 11 44 06.762 -04 16 52.04 20.8 w F51 – Pan-STARRS 1, Haleakala MPS 517819
2014 05 24.30988 11 44 07.013 -04 16 50.61 20.8 w F51 – Pan-STARRS 1, Haleakala MPS 517819
2015 06 18.39703 19 52 37.49 -10 59 32.1 20.3 V G96 – Mt. Lemmon Survey MPS 612506
2015 06 18.40161 19 52 37.28 -10 59 31.6 20.5 V G96 – Mt. Lemmon Survey MPS 612506
2015 06 18.40618 19 52 37.12 -10 59 30.9 20.1 V G96 – Mt. Lemmon Survey MPS 612506
2015 06 18.41075 19 52 36.97 -10 59 30.2 20.2 V G96 – Mt. Lemmon Survey MPS 612506
2015 06 25.47275 19 48 06.091 -10 46 20.97 20.3 w F51 – Pan-STARRS 1, Haleakala MPS 614083
2015 06 25.48358 19 48 05.608 -10 46 19.97 20.1 w F51 – Pan-STARRS 1, Haleakala MPS 614083
2015 06 25.49447 19 48 05.127 -10 46 19.00 20.3 w F51 – Pan-STARRS 1, Haleakala MPS 614083
2016 09 22.41782 02 23 50.04 +19 10 03.9 20.1 V G96 – Mt. Lemmon Survey MPS 730644
2016 09 22.42389 02 23 49.87 +19 10 02.5 20.5 V G96 – Mt. Lemmon Survey MPS 730644
